Weather History for Nuiqsut, AK

Change the Weather History Date:

Tuesday, March 19, 2013

  Actual Average (PAKU) Record (PAKU)
Temperature  
Mean Temperature -14 °F -  
Max Temperature -4 °F -4 °F 21 °F (2002)
Min Temperature -24 °F -14 °F -40 °F (2004)
Degree Days  
Heating Degree Days 79    
Moisture  
Dew Point -15 °F    
Average Humidity 84    
Maximum Humidity 92    
Minimum Humidity 77    
Precipitation  
Precipitation 0.00 in - - ()
Sea Level Pressure  
Sea Level Pressure 30.29 in    
Wind  
Wind Speed 14 mph (WSW)    
Max Wind Speed 21 mph    
Max Gust Speed -    
Visibility 3 miles    
Events Fog , Snow    
Averages and records for this station are not official NWS values.
T = Trace of Precipitation, MM = Missing Value Source: NWS Daily Summary

Daily Weather History Graph

Daily Weather History Graph

Search for Another Location

Airport:

Trip Planner

Search our weather history database for the weather conditions in past years. The results will help you decide how hot, cold, wet, or windy it might be!

Date:

Astronomy

Mar. 19, 2013 Rise Set
Actual Time 8:05 AM AKDT 8:20 PM AKDT
Civil Twilight 7:03 AM AKDT 9:22 PM AKDT
Nautical Twilight 5:44 AM AKDT 10:42 PM AKDT
Astronomical Twilight 3:57 AM AKDT 12:33 AM AKDT
Moon No Moon Rise No Moon Set
Length of Visible Light 14h 18m
Length of Day
12h 14m
Waxing Crescent, 51% of the Moon is Illuminated
Mar 19
Waxing Crescent
Mar 27
Full
Apr 2
Last Quarter
Apr 10
New
Apr 18
First Quarter

Hourly Weather History & Observations

Time (AKDT) Temp. Windchill Dew Point Humidity Pressure Visibility Wind Dir Wind Speed Gust Speed Precip Events Conditions
12:53 AM -20.0 °F -38.6 °F -24.0 °F 82% 30.48 in 10.0 mi WSW 8.1 mph - N/A   Mostly Cloudy
1:53 AM -22.0 °F -43.6 °F -26.0 °F 82% 30.48 in 10.0 mi SW 10.4 mph - N/A   Clear
2:53 AM -24.0 °F -47.2 °F -27.9 °F 82% 30.47 in 10.0 mi WSW 11.5 mph - N/A   Clear
3:53 AM -24.0 °F -47.2 °F -29.0 °F 77% 30.45 in 10.0 mi SW 11.5 mph - N/A   Clear
4:53 AM -24.0 °F -47.2 °F -27.9 °F 82% 30.46 in 8.0 mi SW 11.5 mph - N/A   Partly Cloudy
5:53 AM -20.9 °F -45.3 °F -26.0 °F 77% 30.45 in 7.0 mi SW 13.8 mph - N/A   Overcast
6:53 AM -18.9 °F -43.6 °F -23.1 °F 81% 30.43 in 5.0 mi SW 15.0 mph - N/A   Overcast
7:53 AM -17.0 °F -41.1 °F -20.9 °F 82% 30.42 in 4.0 mi SW 15.0 mph - N/A   Overcast
8:53 AM -16.1 °F -38.2 °F -20.0 °F 82% 30.41 in 2.5 mi SW 12.7 mph - 0.00 in   Overcast
9:23 AM -14.8 °F -37.5 °F -18.4 °F 84% 30.39 in 1.5 mi SW 13.8 mph - 0.00 in Snow Light Snow
9:44 AM -14.8 °F -37.5 °F -18.4 °F 84% 30.38 in 2.5 mi SW 13.8 mph - 0.00 in   Overcast
9:53 AM -14.1 °F -36.6 °F -18.0 °F 82% 30.39 in 2.0 mi SW 13.8 mph - 0.00 in   Overcast
10:14 AM -14.8 °F -36.6 °F -18.4 °F 84% 30.38 in 4.0 mi SW 12.7 mph - 0.00 in   Overcast
10:46 AM -14.8 °F -35.6 °F -18.4 °F 84% 30.37 in 2.5 mi SW 11.5 mph - 0.00 in   Overcast
10:53 AM -14.1 °F -35.7 °F -18.0 °F 82% 30.38 in 5.0 mi SW 12.7 mph - 0.00 in   Overcast
11:22 AM -13.0 °F -35.2 °F -16.6 °F 84% 30.36 in 1.8 mi WSW 13.8 mph - 0.00 in Snow Light Snow
11:39 AM -13.0 °F -36.8 °F -16.6 °F 84% 30.35 in 2.0 mi WSW 16.1 mph - 0.00 in Snow Light Snow
11:53 AM -11.9 °F -34.6 °F -16.1 °F 82% 30.35 in 3.0 mi WSW 15.0 mph - 0.00 in   Overcast
11:59 AM -11.2 °F -33.7 °F -16.6 °F 77% 30.35 in 1.8 mi WSW 15.0 mph - 0.00 in Snow Light Snow
12:09 PM -11.2 °F -33.7 °F -14.8 °F 84% 30.34 in 2.5 mi WSW 15.0 mph - 0.00 in   Overcast
12:39 PM -11.2 °F -33.7 °F -14.8 °F 84% 30.33 in 5.0 mi WSW 15.0 mph - 0.00 in   Overcast
12:53 PM -9.9 °F -31.3 °F -14.1 °F 82% 30.33 in 1.5 mi West 13.8 mph - 0.00 in Snow Light Snow
1:06 PM -9.4 °F -31.4 °F -14.8 °F 77% 30.32 in 1.5 mi West 15.0 mph - 0.00 in Snow Light Snow
1:12 PM -9.4 °F -31.4 °F -13.0 °F 84% 30.32 in 2.0 mi West 15.0 mph - 0.00 in   Overcast
1:46 PM -9.4 °F -31.4 °F -11.2 °F 92% 30.32 in 3.0 mi West 15.0 mph - 0.00 in   Overcast
1:53 PM -8.0 °F -29.6 °F -11.9 °F 83% 30.32 in 3.0 mi WSW 15.0 mph - 0.00 in   Overcast
2:53 PM -7.1 °F -29.1 °F -11.0 °F 83% 30.31 in 7.0 mi WSW 16.1 mph - N/A   Overcast
3:37 PM -7.6 °F -29.8 °F -9.4 °F 92% 30.28 in 2.5 mi WSW 16.1 mph - N/A   Overcast
3:53 PM -6.0 °F -28.4 °F -9.9 °F 83% 30.28 in 3.0 mi WSW 17.3 mph - N/A   Overcast
4:31 PM -5.8 °F -29.9 °F -9.4 °F 84% 30.25 in 2.5 mi WSW 20.7 mph - N/A   Overcast
4:53 PM -5.1 °F -29.0 °F -9.0 °F 83% 30.24 in 2.5 mi WSW 20.7 mph - N/A   Overcast
5:13 PM -5.8 °F -29.9 °F -9.4 °F 84% 30.23 in 1.5 mi WSW 20.7 mph - N/A   Overcast
5:53 PM -5.1 °F -27.8 °F -8.0 °F 87% 30.22 in 2.0 mi West 18.4 mph - N/A   Overcast
6:22 PM -5.8 °F -29.4 °F -9.4 °F 84% 30.20 in 1.5 mi WSW 19.6 mph - N/A   Overcast
6:53 PM -5.1 °F -27.8 °F -8.0 °F 87% 30.19 in 1.0 mi WSW 18.4 mph - N/A   Overcast
7:53 PM -5.1 °F -26.6 °F -8.0 °F 87% 30.17 in 1.0 mi West 16.1 mph - N/A   Overcast
8:39 PM -5.8 °F -28.8 °F -7.6 °F 92% 30.14 in 1.0 mi WSW 18.4 mph - N/A   Overcast
8:53 PM -5.1 °F -27.2 °F -8.0 °F 87% 30.14 in 1.5 mi WSW 17.3 mph - N/A   Overcast
9:53 PM -4.0 °F -25.2 °F -7.1 °F 87% 30.10 in 1.0 mi WSW 16.1 mph - N/A   Overcast
10:11 PM -4.0 °F -25.8 °F -7.6 °F 85% 30.08 in 0.8 mi WSW 17.3 mph - 0.00 in Snow Light Snow
10:42 PM -4.0 °F -27.0 °F -7.6 °F 85% 30.06 in 0.5 mi WSW 19.6 mph - 0.00 in Fog , Snow Light Snow
10:53 PM -5.1 °F -29.0 °F -8.0 °F 87% 30.06 in 0.2 mi WSW 20.7 mph - 0.00 in Fog , Snow Light Snow
11:01 PM -5.8 °F -29.9 °F -7.6 °F 92% 30.05 in 0.2 mi WSW 20.7 mph - 0.00 in Fog , Snow Light Snow
11:12 PM -5.8 °F -29.9 °F -7.6 °F 92% 30.04 in 0.5 mi WSW 20.7 mph - 0.00 in Fog , Snow Light Snow
11:53 PM -5.1 °F -28.4 °F -8.0 °F 87% 30.03 in 0.5 mi WSW 19.6 mph - 0.00 in Fog , Snow Light Snow